Richmond, VA

12:19 AM EST on December 15, 2019 (GMT -0500)
Richmond International

Weather History for KRIC - October, 2019

Change the Weather History Date:

Thursday, October 31, 2019

  Actual Average Record
Temperature  
Mean Temperature 69 °F 55 °F  
Max Temperature 82 °F 67 °F 85 °F (1950)
Min Temperature 56 °F 44 °F 23 °F (1933)
Degree Days  
Heating Degree Days 0 10  
Month to date heating degree days 110 204  
Since 1 July heating degree days 110 233  
Cooling Degree Days 4 0  
Month to date cooling degree days 81 39  
Year to date cooling degree days 2051 1543  
Growing Degree Days 19 (Base 50)    
Moisture  
Dew Point 67 °F    
Average Humidity 86    
Maximum Humidity 97    
Minimum Humidity 69    
Precipitation  
Precipitation 0.67 in 0.10 in 1.71 in (1899)
Month to date precipitation 4.66 2.98  
Year to date precipitation 37.81 37.10  
Snow  
Snow 0.00 in 0.00 in 0.00 in (2002)
Month to date snowfall 0.0 0.0  
Since 1 July snowfall 0.0 0.0  
Snow Depth 0.00 in    
Sea Level Pressure  
Sea Level Pressure 29.83 in    
Wind  
Wind Speed 13 mph ()    
Max Wind Speed 39 mph    
Max Gust Speed 51 mph    
Visibility 8.9 miles    
Events Rain , Thunderstorm    
T = Trace of Precipitation, MM = Missing Value Source: Averaged Metar Reports

Daily Weather History Graph

Daily Weather History Graph

Search for Another Location

Airport or City:

Astronomy

Oct. 31, 2019 Rise Set
Actual Time 7:32 AM EDT 6:12 PM EDT
Civil Twilight 7:05 AM EDT 6:39 PM EDT
Nautical Twilight 6:35 AM EDT 7:10 PM EDT
Astronomical Twilight 6:04 AM EDT 7:40 PM EDT
Moon 11:15 AM EDT (10/31) 9:10 PM EDT (10/31)
Length of Visible Light 11h 33m
Length of Day
10h 39m
Waxing Crescent, 15% of the Moon is Illuminated
Oct 31
Waxing Crescent
Nov 4
First Quarter
Nov 12
Full
Nov 19
Last Quarter
Nov 26
New

Hourly Weather History & Observations

Time (EDT) Temp. Heat Index Dew Point Humidity Pressure Visibility Wind Dir Wind Speed Gust Speed Precip Events Conditions
12:54 AM 63.0 °F - 62.1 °F 97% 30.05 in 10.0 mi SSE 8.1 mph - 0.01 in   Mostly Cloudy
1:24 AM 63.0 °F - 62.1 °F 97% 30.04 in 10.0 mi South 6.9 mph - N/A   Overcast
1:54 AM 63.0 °F - 62.1 °F 97% 30.04 in 7.0 mi South 6.9 mph - 0.00 in Rain Light Rain
2:01 AM 63.0 °F - 62.1 °F 97% 30.02 in 9.0 mi South 5.8 mph - 0.00 in Rain Light Rain
2:54 AM 64.9 °F - 64.0 °F 97% 30.02 in 10.0 mi South 8.1 mph - 0.00 in   Overcast
3:54 AM 66.9 °F - 64.9 °F 93% 30.00 in 10.0 mi South 9.2 mph - 0.00 in   Overcast
4:54 AM 66.9 °F - 66.0 °F 97% 29.99 in 10.0 mi South 9.2 mph - 0.01 in Rain Light Rain
5:54 AM 69.1 °F - 66.0 °F 90% 29.98 in 10.0 mi South 11.5 mph - 0.00 in   Overcast
6:54 AM 68.0 °F - 66.9 °F 96% 29.96 in 10.0 mi South 13.8 mph - N/A   Overcast
7:54 AM 69.1 °F - 66.9 °F 93% 29.95 in 10.0 mi South 15.0 mph - N/A   Overcast
8:54 AM 70.0 °F - 68.0 °F 93% 29.96 in 10.0 mi South 13.8 mph - N/A   Overcast
9:54 AM 71.1 °F - 69.1 °F 93% 29.94 in 10.0 mi South 15.0 mph - N/A   Overcast
10:08 AM 72.0 °F - 69.1 °F 91% 29.93 in 10.0 mi South 15.0 mph - N/A   Overcast
10:54 AM 73.9 °F - 69.1 °F 85% 29.93 in 10.0 mi South 19.6 mph 27.6 mph N/A   Overcast
11:54 AM 75.0 °F - 70.0 °F 84% 29.91 in 10.0 mi South 16.1 mph 25.3 mph N/A   Overcast
12:54 PM 75.9 °F - 70.0 °F 82% 29.87 in 10.0 mi South 16.1 mph - 0.00 in   Overcast
1:54 PM 78.1 °F - 70.0 °F 76% 29.82 in 10.0 mi South 15.0 mph 24.2 mph N/A   Overcast
2:02 PM 78.1 °F - 70.0 °F 76% 29.79 in 10.0 mi South 20.7 mph 25.3 mph N/A   Overcast
2:54 PM 81.0 °F 84.4 °F 70.0 °F 69% 29.77 in 10.0 mi South 24.2 mph 32.2 mph N/A   Overcast
3:54 PM 81.0 °F 84.4 °F 70.0 °F 69% 29.75 in 10.0 mi South 18.4 mph 34.5 mph N/A   Mostly Cloudy
4:54 PM 80.1 °F 82.9 °F 69.1 °F 69% 29.73 in 10.0 mi South 18.4 mph 25.3 mph N/A   Mostly Cloudy
5:54 PM 79.0 °F - 70.0 °F 74% 29.70 in 10.0 mi South 20.7 mph 28.8 mph N/A   Mostly Cloudy
6:54 PM 78.1 °F - 69.1 °F 74% 29.68 in 10.0 mi South 19.6 mph 34.5 mph N/A   Mostly Cloudy
7:44 PM 77.0 °F - 69.8 °F 78% 29.66 in 10.0 mi South 23.0 mph 32.2 mph N/A   Mostly Cloudy
7:54 PM 77.0 °F - 69.1 °F 76% 29.66 in 10.0 mi South 25.3 mph 33.4 mph N/A   Overcast
8:28 PM 78.1 °F - 69.1 °F 74% 29.65 in 10.0 mi South 25.3 mph 39.1 mph N/A   Overcast
8:54 PM 78.1 °F - 69.1 °F 74% 29.67 in 10.0 mi South 28.8 mph 41.4 mph N/A   Overcast
9:15 PM 77.0 °F - 69.1 °F 76% 29.67 in 10.0 mi South 27.6 mph 40.3 mph 0.00 in Rain , Thunderstorm Light Thunderstorms and Rain
9:34 PM 73.9 °F - 71.1 °F 91% 29.67 in 1.5 mi SSW 19.6 mph 31.1 mph 0.08 in Rain , Thunderstorm Light Thunderstorms and Rain
9:48 PM 73.4 °F - 71.6 °F 94% 29.67 in 7.0 mi South 16.1 mph - 0.19 in Rain , Thunderstorm Light Thunderstorms and Rain
9:54 PM 73.0 °F - 71.1 °F 93% 29.69 in 7.0 mi South 16.1 mph - 0.20 in Rain , Thunderstorm Light Thunderstorms and Rain
10:24 PM 72.0 °F - 70.0 °F 93% 29.67 in 10.0 mi SSW 12.7 mph - 0.09 in Rain Light Rain
10:54 PM 72.0 °F - 70.0 °F 93% 29.69 in 2.5 mi SW 13.8 mph - 0.17 in Rain Rain
11:10 PM 64.9 °F - 64.0 °F 97% 29.72 in 1.0 mi West 32.2 mph 50.6 mph 0.21 in Rain Heavy Rain
11:20 PM 60.1 °F - 57.9 °F 93% 29.75 in 6.0 mi West 27.6 mph 46.0 mph 0.27 in Rain Light Rain
11:32 PM 59.0 °F - 55.0 °F 87% 29.77 in 7.0 mi West 27.6 mph 47.2 mph 0.27 in Rain Light Rain
11:54 PM 57.9 °F - 52.0 °F 81% 29.79 in 10.0 mi West 24.2 mph 33.4 mph 0.28 in Rain Light Rain